AFR1054 KEWR-LFPG

Flight info

Callsign AFR1054
Flight time 5h 44m
Altitude 35000
Route MERIT DCT HFD DCT PUT DCT BOS DCT BRADD N175G PORTI/M084F370 DCT 47N050W 49N040W 51N030W 53N020W DCT MALOT DCT GISTI/N0479F390 DCT NORLA DCT PEWBI DCT OXLOW M140 SAM L620 MID/N0501F290 Y803 SFD UM605 BIBAX
Aircraft B77W/H-SDE1E2E3FGHIJ2J3J4J5M1RWXY/LB1D1

Departure

Time 2026-04-25 19:17
Airport Newark Liberty International Airport (KEWR)

Arrival

Time 2026-04-26 01:01
Airport Charles de Gaulle International Airport (LFPG)
Time Latitude Longitude Altitude Speed Heading
2026-04-25 18:12 40.69773 -74.17607 31 ft 0 kts 156°
2026-04-25 18:59 40.69776 -74.17609 27 ft 3 kts 155°
2026-04-25 19:00 40.69804 -74.17645 21 ft 4 kts 88°
2026-04-25 19:00 40.69798 -74.17673 13 ft 4 kts 56°
2026-04-25 19:01 40.69779 -74.17703 24 ft 0 kts 40°
2026-04-25 19:07 40.69827 -74.17648 27 ft 14 kts 40°
2026-04-25 19:07 40.69905 -74.17555 27 ft 15 kts 44°
2026-04-25 19:08 40.69958 -74.17437 27 ft 5 kts 95°
2026-04-25 19:08 40.69947 -74.17384 27 ft 7 kts 108°
2026-04-25 19:09 40.69754 -74.17100 27 ft 20 kts 144°
2026-04-25 19:09 40.69674 -74.17041 27 ft 20 kts 156°
2026-04-25 19:09 40.69360 -74.16976 27 ft 17 kts 187°
2026-04-25 19:10 40.69247 -74.17019 27 ft 17 kts 204°
2026-04-25 19:10 40.69141 -74.17086 27 ft 17 kts 206°
2026-04-25 19:10 40.69035 -74.17154 26 ft 17 kts 206°
2026-04-25 19:10 40.68929 -74.17221 27 ft 17 kts 206°
2026-04-25 19:11 40.68823 -74.17288 27 ft 17 kts 206°
2026-04-25 19:11 40.68716 -74.17356 28 ft 17 kts 205°
2026-04-25 19:11 40.68610 -74.17422 28 ft 17 kts 205°
2026-04-25 19:11 40.68504 -74.17489 28 ft 17 kts 205°
2026-04-25 19:12 40.68398 -74.17557 27 ft 17 kts 206°
2026-04-25 19:12 40.68294 -74.17624 27 ft 17 kts 206°
2026-04-25 19:12 40.68188 -74.17692 27 ft 17 kts 206°
2026-04-25 19:12 40.68082 -74.17760 27 ft 17 kts 206°
2026-04-25 19:13 40.67976 -74.17828 27 ft 17 kts 206°
2026-04-25 19:13 40.67870 -74.17896 27 ft 17 kts 206°
2026-04-25 19:13 40.67764 -74.17963 27 ft 17 kts 205°
2026-04-25 19:13 40.67660 -74.18028 27 ft 15 kts 204°
2026-04-25 19:14 40.67622 -74.18036 27 ft 0 kts 166°
2026-04-25 19:15 40.67579 -74.17995 27 ft 15 kts 127°
2026-04-25 19:15 40.67576 -74.17934 27 ft 1 kts 49°
2026-04-25 19:16 40.67596 -74.17916 27 ft 6 kts 33°
2026-04-25 19:16 40.67610 -74.17905 27 ft 2 kts 30°
2026-04-25 19:16 40.67721 -74.17830 26 ft 33 kts 26°
2026-04-25 19:16 40.68120 -74.17574 29 ft 112 kts 26°
2026-04-25 19:17 40.69139 -74.16926 160 ft 202 kts 30°
2026-04-25 19:17 40.70474 -74.16069 1515 ft 223 kts 28°
2026-04-25 19:17 40.71921 -74.15260 2848 ft 234 kts 26°
2026-04-25 19:17 40.73480 -74.14373 3313 ft 250 kts 33°
2026-04-25 19:18 40.74879 -74.12977 4001 ft 256 kts 43°
2026-04-25 19:18 40.76275 -74.11426 4696 ft 266 kts 42°
2026-04-25 19:18 40.77704 -74.09798 5411 ft 276 kts 42°
2026-04-25 19:18 40.79169 -74.08065 6053 ft 288 kts 42°
2026-04-25 19:19 40.80665 -74.06232 6716 ft 299 kts 42°
2026-04-25 19:19 40.82166 -74.04352 7630 ft 296 kts 42°
2026-04-25 19:19 40.83659 -74.02452 8470 ft 299 kts 42°
2026-04-25 19:19 40.84653 -74.01177 9006 ft 302 kts 42°
2026-04-25 19:20 40.86654 -73.98583 10098 ft 306 kts 42°
2026-04-25 19:20 40.88192 -73.96568 10642 ft 320 kts 42°
2026-04-25 19:20 40.89838 -73.94412 10825 ft 347 kts 42°
2026-04-25 19:20 40.91599 -73.92107 11031 ft 372 kts 42°
2026-04-25 19:21 40.93479 -73.89653 11429 ft 390 kts 42°
2026-04-25 19:21 40.97449 -73.84462 12984 ft 406 kts 42°
2026-04-25 19:21 40.99464 -73.81813 13900 ft 411 kts 42°
2026-04-25 19:22 41.01476 -73.79156 14684 ft 416 kts 42°
2026-04-25 19:22 41.03422 -73.76568 15445 ft 421 kts 42°
2026-04-25 19:22 41.07586 -73.70967 17011 ft 432 kts 42°
2026-04-25 19:23 41.09694 -73.68103 17804 ft 437 kts 42°
2026-04-25 19:23 41.13139 -73.61401 19021 ft 457 kts 69°
2026-04-25 19:23 41.14028 -73.57332 19713 ft 463 kts 72°
2026-04-25 19:24 41.15012 -73.53259 20421 ft 464 kts 65°
2026-04-25 19:24 41.16399 -73.49373 21125 ft 465 kts 57°
2026-04-25 19:24 41.20142 -73.42364 22483 ft 468 kts 46°
2026-04-25 19:25 41.24405 -73.35733 23768 ft 476 kts 44°
2026-04-25 19:25 41.26573 -73.32369 24295 ft 481 kts 45°
2026-04-25 19:25 41.28740 -73.28949 24815 ft 485 kts 45°
2026-04-25 19:26 41.30882 -73.25519 25332 ft 490 kts 45°
2026-04-25 19:26 41.33059 -73.22006 25821 ft 493 kts 45°
2026-04-25 19:26 41.35251 -73.18466 26328 ft 497 kts 45°
2026-04-25 19:26 41.37450 -73.14883 26797 ft 502 kts 47°
2026-04-25 19:27 41.39482 -73.11074 27261 ft 510 kts 53°
2026-04-25 19:27 41.40087 -73.09759 27413 ft 512 kts 54°
2026-04-25 19:27 41.43117 -73.02826 28194 ft 518 kts 56°
2026-04-25 19:27 41.44892 -72.98697 28640 ft 521 kts 56°
2026-04-25 19:28 41.46706 -72.94500 29049 ft 524 kts 55°
2026-04-25 19:28 41.48545 -72.90277 29433 ft 528 kts 55°
2026-04-25 19:28 41.50403 -72.86038 29809 ft 530 kts 55°
2026-04-25 19:28 41.52271 -72.81783 30153 ft 533 kts 55°
2026-04-25 19:29 41.54147 -72.77511 30525 ft 534 kts 54°
2026-04-25 19:29 41.56019 -72.73236 31009 ft 531 kts 54°
2026-04-25 19:29 41.57877 -72.68984 31518 ft 528 kts 54°
2026-04-25 19:29 41.59729 -72.64740 31960 ft 527 kts 54°
2026-04-25 19:30 41.61567 -72.60523 32388 ft 526 kts 54°
2026-04-25 19:30 41.63409 -72.56294 32811 ft 525 kts 54°
2026-04-25 19:30 41.65249 -72.52089 33223 ft 523 kts 53°
2026-04-25 19:30 41.67113 -72.47923 33653 ft 521 kts 53°
2026-04-25 19:31 41.68988 -72.43781 34061 ft 520 kts 52°
2026-04-25 19:31 41.70863 -72.39649 34416 ft 518 kts 52°
2026-04-25 19:31 41.72726 -72.35533 34793 ft 516 kts 52°
2026-04-25 19:31 41.74577 -72.31427 35130 ft 515 kts 53°
2026-04-25 19:32 41.78281 -72.23169 35104 ft 516 kts 53°
2026-04-25 19:32 41.80716 -72.17713 35102 ft 513 kts 53°
2026-04-25 19:33 41.85575 -72.06802 35109 ft 511 kts 53°
2026-04-25 19:33 41.89215 -71.98609 35116 ft 511 kts 53°
2026-04-25 19:34 41.92845 -71.90414 35115 ft 511 kts 52°
2026-04-25 19:34 41.96456 -71.82270 35117 ft 510 kts 52°
2026-04-25 19:35 42.00260 -71.74229 35114 ft 509 kts 50°
2026-04-25 19:35 42.04101 -71.66285 35107 ft 510 kts 50°
2026-04-25 19:36 42.07942 -71.58245 35114 ft 510 kts 50°
2026-04-25 19:36 42.11753 -71.50185 35112 ft 510 kts 51°
2026-04-25 19:37 42.15538 -71.42146 35126 ft 510 kts 51°
2026-04-25 19:37 42.19340 -71.34054 35125 ft 510 kts 51°
2026-04-25 19:38 42.23111 -71.26010 35122 ft 509 kts 51°
2026-04-25 19:38 42.26884 -71.17942 35121 ft 508 kts 51°
2026-04-25 19:39 42.30657 -71.09852 35143 ft 508 kts 51°
2026-04-25 19:39 42.34349 -71.01728 35146 ft 511 kts 55°
2026-04-25 19:40 42.37183 -70.92787 35133 ft 522 kts 66°
2026-04-25 19:40 42.39210 -70.83359 35143 ft 523 kts 68°
2026-04-25 19:41 42.40848 -70.75497 35139 ft 522 kts 68°
2026-04-25 19:41 42.42508 -70.67635 35135 ft 522 kts 68°
2026-04-25 19:42 42.44873 -70.56593 35135 ft 522 kts 67°
2026-04-25 19:42 42.46849 -70.47389 35142 ft 522 kts 67°
2026-04-25 19:43 42.48858 -70.37978 35141 ft 523 kts 67°
2026-04-25 19:43 42.50872 -70.28485 35143 ft 523 kts 67°
2026-04-25 19:44 42.52863 -70.19054 35144 ft 523 kts 67°
2026-04-25 19:44 42.54860 -70.09556 35143 ft 523 kts 67°
2026-04-25 19:45 42.56843 -70.00076 35137 ft 523 kts 67°
2026-04-25 19:45 42.58824 -69.90568 35131 ft 522 kts 67°
2026-04-25 19:46 42.60792 -69.81076 35130 ft 522 kts 67°
2026-04-25 19:46 42.62733 -69.71668 35128 ft 521 kts 67°
2026-04-25 19:47 42.64673 -69.62228 35125 ft 521 kts 67°
2026-04-25 19:47 42.66608 -69.52763 35130 ft 521 kts 67°
2026-04-25 19:48 42.68554 -69.43205 35112 ft 520 kts 67°
2026-04-25 19:48 42.70473 -69.33732 35120 ft 520 kts 66°
2026-04-25 19:49 42.72064 -69.25844 35122 ft 520 kts 66°
2026-04-25 19:49 42.74278 -69.14816 35124 ft 519 kts 66°
2026-04-25 19:50 42.77119 -69.00577 35121 ft 519 kts 67°
2026-04-25 19:51 42.79002 -68.91079 35118 ft 519 kts 66°
2026-04-25 19:51 42.80853 -68.81703 35116 ft 518 kts 66°
2026-04-25 19:52 42.82713 -68.72234 35114 ft 518 kts 66°
2026-04-25 19:52 42.84531 -68.62934 35110 ft 518 kts 66°
2026-04-25 19:53 42.86378 -68.53443 35107 ft 518 kts 66°
2026-04-25 19:53 42.88215 -68.43957 35109 ft 518 kts 66°
2026-04-25 19:54 42.90035 -68.34513 35105 ft 518 kts 66°
2026-04-25 19:54 42.91859 -68.25003 35104 ft 518 kts 66°
2026-04-25 19:55 42.93676 -68.15478 35102 ft 519 kts 66°
2026-04-25 19:55 42.95489 -68.05930 35101 ft 519 kts 66°
2026-04-25 19:56 42.97294 -67.96380 35086 ft 519 kts 66°
2026-04-25 19:56 42.99079 -67.86880 35091 ft 520 kts 66°
2026-04-25 19:57 43.00870 -67.77307 35092 ft 520 kts 66°
2026-04-25 19:57 43.02655 -67.67719 35090 ft 520 kts 67°
2026-04-25 19:58 43.04431 -67.58125 35084 ft 520 kts 67°
2026-04-25 19:58 43.06201 -67.48518 35079 ft 520 kts 67°
2026-04-25 19:59 43.07950 -67.38974 35088 ft 520 kts 67°
2026-04-25 19:59 43.09702 -67.29366 35080 ft 520 kts 67°
2026-04-25 20:00 43.11446 -67.19751 35059 ft 520 kts 68°
2026-04-25 20:00 43.13183 -67.10126 35064 ft 519 kts 68°
2026-04-25 20:01 43.16042 -66.96196 35056 ft 508 kts 59°
2026-04-25 20:01 43.18765 -66.87288 35066 ft 506 kts 58°
2026-04-25 20:02 43.21533 -66.78384 35056 ft 506 kts 58°
2026-04-25 20:02 43.24240 -66.69533 35057 ft 507 kts 59°
2026-04-25 20:03 43.26941 -66.60574 35059 ft 507 kts 59°
2026-04-25 20:03 43.29619 -66.51628 35051 ft 507 kts 60°
2026-04-25 20:04 43.32303 -66.42635 35045 ft 507 kts 60°
2026-04-25 20:04 43.34951 -66.33738 35045 ft 507 kts 60°
2026-04-25 20:05 43.37623 -66.24734 35031 ft 507 kts 60°
2026-04-25 20:05 43.40252 -66.15841 35034 ft 507 kts 61°
2026-04-25 20:06 43.42899 -66.06859 35032 ft 506 kts 61°
2026-04-25 20:06 43.45535 -65.97879 35027 ft 505 kts 61°
2026-04-25 20:07 43.48148 -65.88947 35020 ft 505 kts 61°
2026-04-25 20:07 43.50764 -65.79975 35001 ft 504 kts 62°
2026-04-25 20:08 43.53366 -65.71018 35006 ft 503 kts 62°
2026-04-25 20:08 43.55960 -65.62057 35001 ft 503 kts 62°
2026-04-25 20:09 43.58523 -65.53172 34999 ft 502 kts 62°
2026-04-25 20:09 43.61086 -65.44255 34992 ft 502 kts 63°
2026-04-25 20:10 43.63651 -65.35300 34998 ft 501 kts 63°
2026-04-25 20:10 43.66213 -65.26322 34988 ft 501 kts 63°
2026-04-25 20:11 43.68760 -65.17366 34986 ft 500 kts 63°
2026-04-25 20:11 43.71296 -65.08414 34982 ft 500 kts 63°
2026-04-25 20:12 43.73813 -64.99501 34985 ft 500 kts 64°
2026-04-25 20:12 43.75497 -64.93517 34982 ft 499 kts 64°
2026-04-25 20:13 43.78842 -64.81588 34980 ft 499 kts 64°
2026-04-25 20:13 43.81346 -64.72621 34976 ft 498 kts 64°
2026-04-25 20:14 43.83823 -64.63721 34983 ft 497 kts 64°
2026-04-25 20:14 43.86299 -64.54788 34973 ft 497 kts 64°
2026-04-25 20:15 43.88776 -64.45823 34969 ft 497 kts 64°
2026-04-25 20:15 43.91241 -64.36867 34966 ft 497 kts 64°
2026-04-25 20:16 43.93697 -64.27913 34967 ft 497 kts 65°
2026-04-25 20:16 43.96132 -64.18999 34968 ft 497 kts 65°
2026-04-25 20:17 43.98584 -64.09992 34963 ft 498 kts 65°
2026-04-25 20:17 44.01031 -64.00968 34959 ft 498 kts 65°
2026-04-25 20:18 44.03450 -63.92018 34955 ft 498 kts 65°
2026-04-25 20:18 44.05878 -63.82995 34953 ft 498 kts 65°
2026-04-25 20:19 44.08296 -63.73981 34946 ft 498 kts 65°
2026-04-25 20:19 44.10698 -63.64989 34939 ft 498 kts 66°
2026-04-25 20:20 44.13103 -63.55952 34932 ft 497 kts 66°
2026-04-25 20:20 44.15504 -63.46899 34929 ft 497 kts 66°
2026-04-25 20:21 44.17870 -63.37940 34925 ft 496 kts 66°
2026-04-25 20:21 44.20247 -63.28907 34922 ft 495 kts 66°
2026-04-25 20:22 44.21830 -63.22873 34921 ft 495 kts 66°
2026-04-25 20:22 44.24968 -63.10867 34917 ft 493 kts 66°
2026-04-25 20:23 44.27305 -63.01883 34914 ft 492 kts 66°
2026-04-25 20:23 44.29630 -62.92915 34906 ft 491 kts 66°
2026-04-25 20:24 44.31933 -62.83995 34908 ft 490 kts 66°
2026-04-25 20:24 44.34240 -62.75026 34903 ft 490 kts 67°
2026-04-25 20:25 44.36537 -62.66064 34895 ft 489 kts 67°
2026-04-25 20:25 44.38809 -62.57163 34897 ft 489 kts 67°
2026-04-25 20:26 44.41078 -62.48240 34892 ft 489 kts 67°
2026-04-25 20:26 44.43212 -62.39816 34889 ft 489 kts 67°
2026-04-25 20:27 44.45485 -62.30811 34882 ft 489 kts 67°
2026-04-25 20:27 44.47586 -62.22457 34878 ft 489 kts 67°
2026-04-25 20:28 44.49825 -62.13516 34874 ft 489 kts 67°
2026-04-25 20:28 44.52075 -62.04500 34871 ft 489 kts 67°
2026-04-25 20:29 44.54294 -61.95572 34859 ft 489 kts 67°
2026-04-25 20:29 44.56520 -61.86579 34863 ft 489 kts 67°
2026-04-25 20:30 44.58380 -61.79042 34861 ft 489 kts 67°
2026-04-25 20:30 44.60384 -61.70890 34854 ft 490 kts 67°
2026-04-25 20:31 44.62604 -61.61828 34854 ft 490 kts 67°
2026-04-25 20:31 44.64649 -61.53446 34840 ft 490 kts 67°
2026-04-25 20:32 44.66668 -61.45137 34837 ft 491 kts 68°
2026-04-25 20:32 44.68875 -61.36024 34834 ft 491 kts 68°
2026-04-25 20:33 44.71069 -61.26924 34830 ft 491 kts 68°
2026-04-25 20:33 44.72891 -61.19342 34818 ft 491 kts 68°
2026-04-25 20:34 44.75226 -61.09587 34815 ft 492 kts 68°
2026-04-25 20:34 44.77381 -61.00542 34803 ft 492 kts 68°
2026-04-25 20:35 44.79327 -60.92344 34803 ft 492 kts 68°
2026-04-25 20:35 44.81492 -60.83192 34798 ft 492 kts 68°
2026-04-25 20:36 44.83471 -60.74787 34794 ft 492 kts 68°
2026-04-25 20:36 44.85618 -60.65636 34784 ft 492 kts 68°
2026-04-25 20:37 44.87576 -60.57259 34777 ft 492 kts 68°
2026-04-25 20:37 44.89702 -60.48121 34775 ft 492 kts 68°
2026-04-25 20:38 44.91612 -60.39882 34774 ft 492 kts 68°
2026-04-25 20:38 44.93736 -60.30686 34761 ft 492 kts 68°
2026-04-25 20:39 44.95664 -60.22301 34759 ft 492 kts 68°
2026-04-25 20:39 44.97429 -60.14599 34760 ft 492 kts 68°
2026-04-25 20:40 44.99877 -60.03869 34757 ft 493 kts 68°
2026-04-25 20:40 45.01976 -59.94627 34752 ft 493 kts 69°
2026-04-25 20:41 45.03837 -59.86398 34750 ft 493 kts 69°
2026-04-25 20:41 45.05890 -59.77283 34744 ft 493 kts 69°
2026-04-25 20:42 45.07763 -59.68934 34739 ft 493 kts 69°
2026-04-25 20:42 45.09832 -59.59673 34737 ft 493 kts 69°
2026-04-25 20:43 45.11882 -59.50459 34728 ft 493 kts 69°
2026-04-25 20:43 45.13939 -59.41175 34723 ft 493 kts 69°
2026-04-25 20:44 45.15985 -59.31897 34720 ft 493 kts 69°
2026-04-25 20:44 45.18025 -59.22605 34715 ft 493 kts 69°
2026-04-25 20:45 45.19848 -59.14266 34714 ft 493 kts 69°
2026-04-25 20:45 45.21874 -59.04959 34704 ft 493 kts 69°
2026-04-25 20:46 45.23687 -58.96596 34699 ft 493 kts 69°
2026-04-25 20:46 45.25678 -58.87376 34698 ft 493 kts 69°
2026-04-25 20:47 45.27487 -58.78960 34694 ft 493 kts 69°
2026-04-25 20:47 45.29482 -58.69645 34687 ft 493 kts 70°
2026-04-25 20:48 45.31272 -58.61244 34683 ft 493 kts 70°
2026-04-25 20:48 45.33256 -58.51897 34677 ft 493 kts 70°
2026-04-25 20:49 45.35228 -58.42563 34672 ft 494 kts 70°
2026-04-25 20:49 45.37201 -58.33180 34669 ft 494 kts 70°
2026-04-25 20:50 45.39148 -58.23878 34667 ft 494 kts 70°
2026-04-25 20:50 45.41100 -58.14512 34659 ft 494 kts 70°
2026-04-25 20:51 45.42978 -58.05457 34648 ft 494 kts 70°
2026-04-25 20:51 45.44919 -57.96058 34646 ft 494 kts 70°
2026-04-25 20:52 45.46526 -57.88245 34643 ft 494 kts 71°
2026-04-25 20:52 45.48773 -57.77263 34633 ft 494 kts 71°
2026-04-25 20:53 45.50546 -57.68556 34631 ft 494 kts 71°
2026-04-25 20:53 45.52431 -57.59257 34622 ft 493 kts 71°
2026-04-25 20:54 45.54345 -57.49772 34622 ft 493 kts 71°
2026-04-25 20:54 45.56237 -57.40351 34614 ft 493 kts 71°
2026-04-25 20:55 45.58071 -57.31174 34614 ft 493 kts 71°
2026-04-25 20:55 45.59947 -57.21744 34606 ft 493 kts 71°
2026-04-25 20:56 45.61800 -57.12384 34604 ft 493 kts 71°
2026-04-25 20:56 45.63659 -57.02950 34597 ft 493 kts 71°
2026-04-25 20:57 45.65358 -56.94288 34586 ft 493 kts 71°
2026-04-25 20:57 45.67200 -56.84847 34587 ft 493 kts 71°
2026-04-25 20:58 45.69017 -56.75495 34583 ft 493 kts 71°
2026-04-25 20:58 45.70848 -56.66021 34575 ft 493 kts 71°
2026-04-25 20:59 45.72502 -56.57426 34572 ft 493 kts 72°
2026-04-25 20:59 45.74315 -56.47960 34570 ft 493 kts 72°
2026-04-25 21:00 45.75503 -56.41730 34566 ft 493 kts 72°
2026-04-25 21:01 45.78775 -56.24468 34557 ft 494 kts 72°
2026-04-25 21:01 45.80562 -56.14968 34549 ft 494 kts 72°
2026-04-25 21:02 45.82346 -56.05440 34539 ft 494 kts 72°
2026-04-25 21:02 45.84046 -55.96317 34542 ft 494 kts 72°
2026-04-25 21:03 45.85812 -55.86791 34541 ft 494 kts 72°
2026-04-25 21:03 45.87569 -55.77266 34532 ft 494 kts 72°
2026-04-25 21:04 45.89319 -55.67724 34525 ft 494 kts 72°
2026-04-25 21:04 45.91060 -55.58188 34525 ft 493 kts 72°
2026-04-25 21:05 45.92792 -55.48648 34517 ft 493 kts 72°
2026-04-25 21:05 45.94505 -55.39167 34512 ft 493 kts 72°
2026-04-25 21:06 45.96217 -55.29638 34509 ft 492 kts 72°
2026-04-25 21:06 45.97923 -55.20095 34508 ft 492 kts 72°
2026-04-25 21:07 45.99616 -55.10574 34494 ft 492 kts 72°
2026-04-25 21:07 46.01304 -55.01031 34490 ft 492 kts 72°
2026-04-25 21:08 46.02973 -54.91543 34487 ft 492 kts 73°
2026-04-25 21:08 46.04618 -54.82147 34484 ft 492 kts 73°
2026-04-25 21:09 46.07112 -54.67800 34473 ft 492 kts 73°
2026-04-25 21:09 46.08755 -54.58287 34471 ft 493 kts 73°
2026-04-25 21:10 46.10403 -54.48693 34469 ft 493 kts 73°
2026-04-25 21:10 46.12046 -54.39070 34464 ft 494 kts 73°
2026-04-25 21:11 46.13680 -54.29451 34462 ft 494 kts 73°
2026-04-25 21:11 46.15296 -54.19887 34451 ft 494 kts 73°
2026-04-25 21:12 46.16907 -54.10294 34446 ft 495 kts 73°
2026-04-25 21:12 46.17989 -54.03824 34443 ft 495 kts 73°
2026-04-25 21:13 46.20130 -53.90948 34430 ft 496 kts 74°
2026-04-25 21:13 46.21730 -53.81258 34423 ft 496 kts 74°
2026-04-25 21:14 46.23323 -53.71562 34420 ft 496 kts 74°
2026-04-25 21:14 46.24909 -53.61848 34410 ft 496 kts 74°
2026-04-25 21:15 46.26475 -53.52200 34407 ft 497 kts 74°
2026-04-25 21:15 46.28046 -53.42469 34403 ft 497 kts 74°
2026-04-25 21:16 46.29610 -53.32724 34395 ft 497 kts 74°
2026-04-25 21:16 46.31165 -53.22979 34394 ft 498 kts 75°
2026-04-25 21:17 46.32715 -53.13203 34394 ft 498 kts 75°
2026-04-25 21:17 46.34256 -53.03427 34378 ft 499 kts 75°
2026-04-25 21:18 46.35790 -52.93641 34380 ft 498 kts 75°
2026-04-25 21:18 46.37314 -52.83857 34371 ft 498 kts 75°
2026-04-25 21:19 46.38828 -52.74079 34367 ft 498 kts 75°
2026-04-25 21:19 46.40080 -52.65946 34366 ft 497 kts 75°
2026-04-25 21:20 46.41305 -52.57950 34368 ft 497 kts 75°
2026-04-25 21:20 46.43047 -52.46511 34355 ft 497 kts 75°
2026-04-25 21:21 46.44525 -52.36737 34357 ft 496 kts 75°
2026-04-25 21:21 46.45989 -52.26997 34356 ft 496 kts 75°
2026-04-25 21:22 46.47452 -52.17203 34355 ft 496 kts 75°
2026-04-25 21:22 46.48905 -52.07427 34346 ft 495 kts 75°
2026-04-25 21:23 46.50523 -51.97731 34348 ft 492 kts 69°
2026-04-25 21:23 46.52866 -51.88617 34343 ft 491 kts 66°
2026-04-25 21:24 46.55332 -51.79359 34336 ft 491 kts 66°
2026-04-25 21:24 46.57762 -51.70076 34317 ft 491 kts 66°
2026-04-25 21:25 46.60161 -51.60775 34317 ft 491 kts 66°
2026-04-25 21:25 46.62527 -51.51530 34316 ft 491 kts 66°
2026-04-25 21:26 46.64905 -51.42202 34307 ft 491 kts 67°
2026-04-25 21:26 46.67279 -51.32859 34302 ft 492 kts 67°
2026-04-25 21:27 46.69650 -51.23488 34293 ft 493 kts 67°
2026-04-25 21:27 46.72013 -51.14114 34286 ft 494 kts 67°
2026-04-25 21:28 46.74376 -51.04700 34279 ft 495 kts 67°
2026-04-25 21:28 46.76724 -50.95310 34272 ft 495 kts 67°
2026-04-25 21:29 46.79083 -50.85835 34270 ft 496 kts 67°
2026-04-25 21:29 46.81421 -50.76402 34258 ft 497 kts 67°
2026-04-25 21:30 46.83767 -50.66898 34257 ft 498 kts 67°
2026-04-25 21:30 46.85713 -50.58985 34249 ft 498 kts 68°
2026-04-25 21:31 46.88445 -50.47827 34240 ft 499 kts 68°
2026-04-25 21:31 46.90775 -50.38265 34236 ft 499 kts 68°
2026-04-25 21:32 46.93102 -50.28677 34232 ft 500 kts 68°
2026-04-25 21:32 46.95422 -50.19072 34227 ft 500 kts 68°
2026-04-25 21:33 46.97720 -50.09523 34224 ft 501 kts 68°
2026-04-25 21:33 47.00026 -49.99899 34214 ft 501 kts 69°
2026-04-25 21:34 47.02402 -49.90295 34212 ft 501 kts 68°
2026-04-25 21:34 47.04827 -49.80726 34204 ft 501 kts 68°
2026-04-25 21:35 47.07242 -49.71140 34202 ft 501 kts 68°
2026-04-25 21:35 47.09638 -49.61533 34194 ft 501 kts 69°
2026-04-25 21:36 47.12011 -49.51954 34190 ft 501 kts 69°
2026-04-25 21:36 47.14383 -49.42336 34201 ft 501 kts 69°
2026-04-25 21:37 47.16356 -49.34302 34189 ft 501 kts 69°
2026-04-25 21:37 47.19097 -49.23104 34196 ft 501 kts 69°
2026-04-25 21:38 47.21447 -49.13455 34201 ft 501 kts 69°
2026-04-25 21:38 47.23793 -49.03782 34200 ft 501 kts 70°
2026-04-25 21:39 47.26130 -48.94102 34200 ft 502 kts 70°
2026-04-25 21:39 47.28463 -48.84396 34204 ft 503 kts 70°
2026-04-25 21:40 47.30777 -48.74730 34210 ft 504 kts 70°
2026-04-25 21:40 47.33103 -48.64967 34202 ft 504 kts 70°
2026-04-25 21:41 47.35424 -48.55183 34214 ft 504 kts 70°
2026-04-25 21:41 47.37718 -48.45470 34216 ft 505 kts 70°
2026-04-25 21:42 47.40022 -48.35672 34225 ft 505 kts 71°
2026-04-25 21:42 47.42313 -48.25884 34216 ft 504 kts 71°
2026-04-25 21:43 47.44596 -48.16083 34226 ft 504 kts 71°
2026-04-25 21:43 47.46868 -48.06289 34234 ft 504 kts 71°
2026-04-25 21:44 47.49136 -47.96464 34244 ft 504 kts 71°
2026-04-25 21:45 47.52512 -47.81763 34246 ft 505 kts 72°
2026-04-25 21:45 47.54761 -47.71910 34254 ft 506 kts 72°
2026-04-25 21:46 47.57005 -47.62032 34247 ft 506 kts 72°
2026-04-25 21:46 47.59241 -47.52146 34265 ft 507 kts 72°
2026-04-25 21:47 47.61462 -47.42281 34264 ft 507 kts 72°
2026-04-25 21:47 47.63686 -47.32358 34277 ft 507 kts 73°
2026-04-25 21:48 47.65902 -47.22420 34278 ft 507 kts 73°
2026-04-25 21:48 47.68108 -47.12478 34289 ft 507 kts 73°
2026-04-25 21:49 47.70308 -47.02522 34286 ft 508 kts 73°
2026-04-25 21:49 47.72501 -46.92548 34297 ft 508 kts 74°
2026-04-25 21:50 47.74691 -46.82537 34299 ft 508 kts 74°
2026-04-25 21:50 47.76866 -46.72548 34309 ft 508 kts 74°
2026-04-25 21:51 47.79023 -46.62594 34315 ft 509 kts 74°
2026-04-25 21:51 47.81190 -46.52545 34318 ft 510 kts 75°
2026-04-25 21:52 47.83347 -46.42497 34326 ft 510 kts 75°
2026-04-25 21:52 47.85498 -46.32423 34335 ft 510 kts 75°
2026-04-25 21:53 47.87639 -46.22357 34344 ft 509 kts 75°
2026-04-25 21:53 47.89755 -46.12347 34343 ft 509 kts 75°
2026-04-25 21:54 47.91871 -46.02290 34355 ft 509 kts 75°
2026-04-25 21:54 47.93986 -45.92185 34363 ft 509 kts 75°
2026-04-25 21:55 47.96089 -45.82091 34370 ft 508 kts 75°
2026-04-25 21:55 47.98165 -45.72072 34381 ft 508 kts 75°
2026-04-25 21:56 48.00200 -45.62204 34385 ft 508 kts 76°
2026-04-25 21:56 48.02275 -45.52100 34398 ft 507 kts 76°
2026-04-25 21:57 48.04335 -45.42007 34400 ft 507 kts 76°
2026-04-25 21:57 48.06376 -45.31962 34404 ft 507 kts 76°
2026-04-25 21:58 48.08416 -45.21868 34410 ft 507 kts 76°
2026-04-25 21:58 48.10446 -45.11771 34422 ft 507 kts 76°
2026-04-25 21:59 48.12470 -45.01654 34419 ft 507 kts 76°
2026-04-25 21:59 48.14484 -44.91532 34431 ft 507 kts 76°
2026-04-25 22:00 48.17480 -44.76380 34438 ft 508 kts 77°
2026-04-25 22:00 48.19475 -44.66223 34444 ft 508 kts 77°
2026-04-25 22:01 48.21466 -44.56032 34446 ft 509 kts 77°
2026-04-25 22:01 48.23116 -44.47545 34453 ft 509 kts 77°
2026-04-25 22:02 48.25419 -44.35642 34462 ft 510 kts 77°
2026-04-25 22:02 48.27390 -44.25390 34464 ft 511 kts 77°
2026-04-25 22:03 48.29354 -44.15120 34470 ft 512 kts 78°
2026-04-25 22:03 48.31300 -44.04893 34471 ft 512 kts 78°
2026-04-25 22:04 48.33251 -43.94579 34471 ft 512 kts 78°
2026-04-25 22:04 48.35188 -43.84286 34476 ft 511 kts 78°
2026-04-25 22:05 48.37115 -43.73986 34475 ft 511 kts 78°
2026-04-25 22:05 48.39022 -43.63740 34483 ft 511 kts 78°
2026-04-25 22:06 48.40932 -43.53417 34485 ft 511 kts 79°
2026-04-25 22:06 48.42832 -43.43095 34492 ft 511 kts 79°
2026-04-25 22:07 48.44403 -43.34512 34491 ft 511 kts 79°
2026-04-25 22:07 48.46590 -43.22500 34511 ft 511 kts 79°
2026-04-25 22:08 48.48457 -43.12179 34506 ft 511 kts 79°
2026-04-25 22:08 48.50319 -43.01829 34510 ft 511 kts 79°
2026-04-25 22:09 48.51856 -42.93239 34509 ft 511 kts 79°
2026-04-25 22:09 48.54001 -42.81181 34518 ft 511 kts 79°
2026-04-25 22:10 48.55539 -42.72490 34515 ft 511 kts 80°
2026-04-25 22:10 48.57354 -42.62180 34521 ft 511 kts 80°
2026-04-25 22:11 48.59170 -42.51795 34519 ft 512 kts 80°
2026-04-25 22:11 48.60979 -42.41395 34524 ft 512 kts 80°
2026-04-25 22:12 48.62780 -42.30976 34528 ft 512 kts 80°
2026-04-25 22:12 48.64272 -42.22303 34532 ft 513 kts 80°
2026-04-25 22:13 48.66350 -42.10144 34525 ft 513 kts 80°
2026-04-25 22:13 48.68119 -41.99730 34528 ft 514 kts 81°
2026-04-25 22:14 48.69697 -41.90379 34528 ft 514 kts 81°
2026-04-25 22:14 48.71470 -41.79821 34532 ft 514 kts 81°
2026-04-25 22:15 48.73225 -41.69309 34534 ft 515 kts 81°
2026-04-25 22:16 48.75828 -41.53585 34532 ft 515 kts 81°
2026-04-25 22:16 48.77562 -41.43030 34542 ft 516 kts 81°
2026-04-25 22:17 48.79290 -41.32449 34532 ft 517 kts 81°
2026-04-25 22:17 48.81009 -41.21851 34534 ft 517 kts 81°
2026-04-25 22:18 48.82718 -41.11255 34535 ft 517 kts 81°
2026-04-25 22:18 48.84411 -41.00687 34539 ft 518 kts 81°
2026-04-25 22:19 48.86105 -40.90043 34545 ft 518 kts 81°
2026-04-25 22:19 48.87788 -40.79400 34547 ft 518 kts 81°
2026-04-25 22:20 48.89461 -40.68756 34542 ft 518 kts 81°
2026-04-25 22:20 48.91114 -40.58163 34547 ft 518 kts 81°
2026-04-25 22:21 48.92766 -40.47506 34546 ft 518 kts 81°
2026-04-25 22:21 48.94308 -40.37499 34554 ft 518 kts 82°
2026-04-25 22:22 48.95944 -40.26813 34546 ft 519 kts 82°
2026-04-25 22:22 48.97464 -40.16821 34553 ft 519 kts 82°
2026-04-25 22:23 48.99018 -40.06544 34558 ft 519 kts 82°
2026-04-25 22:23 49.00806 -39.96390 34561 ft 524 kts 74°
2026-04-25 22:24 49.03414 -39.85983 34567 ft 526 kts 72°
2026-04-25 22:24 49.05849 -39.76559 34567 ft 527 kts 72°
2026-04-25 22:25 49.08499 -39.66133 34565 ft 527 kts 72°
2026-04-25 22:25 49.11054 -39.55886 34567 ft 527 kts 73°
2026-04-25 22:26 49.13646 -39.45387 34567 ft 527 kts 73°
2026-04-25 22:26 49.16191 -39.35030 34574 ft 527 kts 73°
2026-04-25 22:27 49.18761 -39.24537 34571 ft 529 kts 73°
2026-04-25 22:27 49.21364 -39.13851 34591 ft 542 kts 73°
2026-04-25 22:28 49.24012 -39.02933 34587 ft 552 kts 73°
2026-04-25 22:28 49.26664 -38.91959 34579 ft 553 kts 73°
2026-04-25 22:29 49.29331 -38.80869 34575 ft 553 kts 73°
2026-04-25 22:29 49.31968 -38.69846 34573 ft 549 kts 73°
2026-04-25 22:30 49.35871 -38.53419 34581 ft 544 kts 73°
2026-04-25 22:30 49.38011 -38.44354 34617 ft 542 kts 78°
2026-04-25 22:31 49.41011 -38.31574 34604 ft 551 kts 77°
2026-04-25 22:31 49.43605 -38.20453 34591 ft 554 kts 77°
2026-04-25 22:32 49.46203 -38.09291 34588 ft 554 kts 77°
2026-04-25 22:32 49.48770 -37.98203 34589 ft 553 kts 77°
2026-04-25 22:33 49.51337 -37.87048 34598 ft 552 kts 77°
2026-04-25 22:33 49.53885 -37.75913 34592 ft 551 kts 77°
2026-04-25 22:34 49.56422 -37.64769 34591 ft 550 kts 77°
2026-04-25 22:34 49.58942 -37.53636 34593 ft 550 kts 77°
2026-04-25 22:35 49.61426 -37.42609 34601 ft 550 kts 77°
2026-04-25 22:35 49.63949 -37.31345 34610 ft 550 kts 77°
2026-04-25 22:36 49.66422 -37.20253 34614 ft 550 kts 77°
2026-04-25 22:36 49.68899 -37.09076 34617 ft 550 kts 77°
2026-04-25 22:37 49.71370 -36.97872 34617 ft 550 kts 77°
2026-04-25 22:37 49.73823 -36.86690 34623 ft 550 kts 77°
2026-04-25 22:38 49.76267 -36.75484 34627 ft 550 kts 77°
2026-04-25 22:38 49.78703 -36.64257 34636 ft 549 kts 77°
2026-04-25 22:39 49.81121 -36.53048 34634 ft 549 kts 77°
2026-04-25 22:39 49.83193 -36.43398 34638 ft 549 kts 77°
2026-04-25 22:40 49.85413 -36.32998 34649 ft 549 kts 77°
2026-04-25 22:40 49.87753 -36.21988 34664 ft 549 kts 77°
2026-04-25 22:41 49.90130 -36.10746 34663 ft 549 kts 77°
2026-04-25 22:41 49.92483 -35.99547 34663 ft 549 kts 77°
2026-04-25 22:42 49.94841 -35.88267 34672 ft 549 kts 77°
2026-04-25 22:42 49.97168 -35.77069 34679 ft 549 kts 77°
2026-04-25 22:43 49.99506 -35.65754 34686 ft 549 kts 77°
2026-04-25 22:43 50.01829 -35.54452 34693 ft 549 kts 77°
2026-04-25 22:44 50.04144 -35.43121 34704 ft 549 kts 77°
2026-04-25 22:44 50.06441 -35.31813 34703 ft 549 kts 77°
2026-04-25 22:45 50.08731 -35.20476 34711 ft 549 kts 77°
2026-04-25 22:45 50.10929 -35.09528 34722 ft 549 kts 77°
2026-04-25 22:46 50.13199 -34.98159 34724 ft 549 kts 77°
2026-04-25 22:46 50.15454 -34.86805 34732 ft 549 kts 77°
2026-04-25 22:47 50.17689 -34.75478 34737 ft 549 kts 77°
2026-04-25 22:47 50.19916 -34.64130 34745 ft 550 kts 77°
2026-04-25 22:48 50.22146 -34.52695 34754 ft 550 kts 77°
2026-04-25 22:48 50.24366 -34.41246 34756 ft 550 kts 77°
2026-04-25 22:49 50.26573 -34.29793 34763 ft 551 kts 77°
2026-04-25 22:49 50.28758 -34.18387 34773 ft 551 kts 77°
2026-04-25 22:50 50.30946 -34.06891 34780 ft 551 kts 77°
2026-04-25 22:50 50.33127 -33.95370 34791 ft 551 kts 77°
2026-04-25 22:51 50.35294 -33.83845 34793 ft 551 kts 77°
2026-04-25 22:51 50.37451 -33.72308 34803 ft 551 kts 77°
2026-04-25 22:52 50.39594 -33.60773 34808 ft 551 kts 77°
2026-04-25 22:52 50.41365 -33.51186 34815 ft 551 kts 77°
2026-04-25 22:53 50.43832 -33.37744 34822 ft 551 kts 77°
2026-04-25 22:53 50.45942 -33.26174 34828 ft 551 kts 77°
2026-04-25 22:54 50.47994 -33.14845 34831 ft 551 kts 77°
2026-04-25 22:54 50.50039 -33.03483 34853 ft 551 kts 77°
2026-04-25 22:55 50.52113 -32.91889 34857 ft 551 kts 77°
2026-04-25 22:55 50.54173 -32.80304 34856 ft 550 kts 77°
2026-04-25 22:56 50.56224 -32.68686 34866 ft 550 kts 77°
2026-04-25 22:56 50.58248 -32.57150 34873 ft 550 kts 77°
2026-04-25 22:57 50.60274 -32.45528 34877 ft 550 kts 77°
2026-04-25 22:57 50.62288 -32.33898 34883 ft 550 kts 77°
2026-04-25 22:58 50.64291 -32.22255 34894 ft 550 kts 77°
2026-04-25 22:58 50.66281 -32.10610 34900 ft 550 kts 77°
2026-04-25 22:59 50.67928 -32.00914 34903 ft 550 kts 77°
2026-04-25 22:59 50.69896 -31.89253 34913 ft 550 kts 77°
2026-04-25 23:00 50.72167 -31.75701 34919 ft 550 kts 77°
2026-04-25 23:00 50.73751 -31.66181 34921 ft 549 kts 77°
2026-04-25 23:01 50.75670 -31.54583 34932 ft 549 kts 77°
2026-04-25 23:01 50.77591 -31.42893 34939 ft 549 kts 77°
2026-04-25 23:02 50.79494 -31.31228 34942 ft 548 kts 77°
2026-04-25 23:02 50.81388 -31.19539 34951 ft 548 kts 77°
2026-04-25 23:03 50.83206 -31.08240 34963 ft 547 kts 77°
2026-04-25 23:03 50.84748 -30.98589 34958 ft 547 kts 77°
2026-04-25 23:04 50.86603 -30.86914 34968 ft 546 kts 77°
2026-04-25 23:04 50.88447 -30.75229 34977 ft 546 kts 78°
2026-04-25 23:05 50.90275 -30.63559 34982 ft 545 kts 78°
2026-04-25 23:05 50.92090 -30.51883 34989 ft 545 kts 78°
2026-04-25 23:06 50.93885 -30.40255 34988 ft 545 kts 78°
2026-04-25 23:06 50.95675 -30.28579 34997 ft 544 kts 78°
2026-04-25 23:07 50.97452 -30.16903 34999 ft 544 kts 78°
2026-04-25 23:07 50.99217 -30.05229 35001 ft 544 kts 78°
2026-04-25 23:08 51.01440 -29.93751 35021 ft 545 kts 69°
2026-04-25 23:08 51.04197 -29.82915 35011 ft 545 kts 68°
2026-04-25 23:09 51.07073 -29.71751 35026 ft 545 kts 68°
2026-04-25 23:09 51.09895 -29.60566 35033 ft 544 kts 69°
2026-04-25 23:10 51.12646 -29.49472 35032 ft 544 kts 69°
2026-04-25 23:10 51.15441 -29.38115 35037 ft 545 kts 69°
2026-04-25 23:11 51.18199 -29.26858 35047 ft 547 kts 69°
2026-04-25 23:11 51.20895 -29.15815 35048 ft 555 kts 69°
2026-04-25 23:12 51.23703 -29.04254 35061 ft 561 kts 69°
2026-04-25 23:12 51.25103 -28.98471 35380 ft 556 kts 69°
2026-04-25 23:12 51.26478 -28.92774 35946 ft 547 kts 69°
2026-04-25 23:13 51.27852 -28.87065 35610 ft 550 kts 69°
2026-04-25 23:13 51.29213 -28.81397 35382 ft 544 kts 69°
2026-04-25 23:13 51.30555 -28.75789 35223 ft 539 kts 69°
2026-04-25 23:13 51.31876 -28.70259 35150 ft 538 kts 69°
2026-04-25 23:14 51.34533 -28.59086 35066 ft 537 kts 69°
2026-04-25 23:14 51.37174 -28.47929 35068 ft 537 kts 69°
2026-04-25 23:15 51.39815 -28.36710 35066 ft 539 kts 69°
2026-04-25 23:15 51.42459 -28.25420 35065 ft 541 kts 69°
2026-04-25 23:16 51.45085 -28.14151 35067 ft 543 kts 69°
2026-04-25 23:16 51.46995 -28.05913 35075 ft 543 kts 69°
2026-04-25 23:17 51.49529 -27.94931 35078 ft 544 kts 69°
2026-04-25 23:17 51.52149 -27.83528 35077 ft 544 kts 70°
2026-04-25 23:18 51.54756 -27.72116 35076 ft 543 kts 70°
2026-04-25 23:18 51.57328 -27.60797 35085 ft 542 kts 70°
2026-04-25 23:19 51.59907 -27.49386 35087 ft 541 kts 70°
2026-04-25 23:19 51.62470 -27.37980 35088 ft 541 kts 70°
2026-04-25 23:20 51.65016 -27.26592 35089 ft 540 kts 70°
2026-04-25 23:20 51.67550 -27.15194 35091 ft 540 kts 70°
2026-04-25 23:21 51.70055 -27.03863 35092 ft 539 kts 70°
2026-04-25 23:21 51.72563 -26.92459 35097 ft 539 kts 70°
2026-04-25 23:22 51.75033 -26.81164 35085 ft 529 kts 70°
2026-04-25 23:23 51.78527 -26.65079 35105 ft 540 kts 70°
2026-04-25 23:23 51.80949 -26.53852 35104 ft 542 kts 70°
2026-04-25 23:24 51.83405 -26.42413 35101 ft 542 kts 70°
2026-04-25 23:24 51.85863 -26.30893 35099 ft 541 kts 70°
2026-04-25 23:25 51.88307 -26.19376 35098 ft 540 kts 71°
2026-04-25 23:25 51.90734 -26.07872 35102 ft 539 kts 71°
2026-04-25 23:26 51.93131 -25.96449 35102 ft 538 kts 71°
2026-04-25 23:26 51.95527 -25.84962 35108 ft 538 kts 71°
2026-04-25 23:27 51.97917 -25.73440 35107 ft 538 kts 71°
2026-04-25 23:27 52.00293 -25.61913 35109 ft 539 kts 71°
2026-04-25 23:28 52.02664 -25.50352 35111 ft 539 kts 71°
2026-04-25 23:28 52.05006 -25.38857 35110 ft 539 kts 71°
2026-04-25 23:29 52.07355 -25.27268 35103 ft 540 kts 71°
2026-04-25 23:29 52.09697 -25.15641 35112 ft 540 kts 71°
2026-04-25 23:30 52.12022 -25.04027 35115 ft 540 kts 71°
2026-04-25 23:30 52.14337 -24.92396 35109 ft 540 kts 71°
2026-04-25 23:31 52.16628 -24.80819 35107 ft 540 kts 71°
2026-04-25 23:31 52.18923 -24.69150 35111 ft 540 kts 71°
2026-04-25 23:32 52.21210 -24.57447 35110 ft 540 kts 71°
2026-04-25 23:32 52.23466 -24.45838 35106 ft 540 kts 71°
2026-04-25 23:33 52.25728 -24.34124 35108 ft 540 kts 72°
2026-04-25 23:33 52.27974 -24.22423 35105 ft 540 kts 72°
2026-04-25 23:34 52.30195 -24.10778 35116 ft 539 kts 72°
2026-04-25 23:34 52.32418 -23.99054 35115 ft 539 kts 72°
2026-04-25 23:35 52.34627 -23.87325 35111 ft 539 kts 72°
2026-04-25 23:35 52.36824 -23.75594 35112 ft 538 kts 72°
2026-04-25 23:36 52.39002 -23.63886 35112 ft 538 kts 72°
2026-04-25 23:36 52.41158 -23.52221 35103 ft 538 kts 72°
2026-04-25 23:37 52.43315 -23.40480 35106 ft 538 kts 72°
2026-04-25 23:37 52.45459 -23.28735 35120 ft 537 kts 72°
2026-04-25 23:38 52.47591 -23.16979 35121 ft 537 kts 72°
2026-04-25 23:38 52.49711 -23.05216 35120 ft 537 kts 72°
2026-04-25 23:39 52.51815 -22.93464 35109 ft 537 kts 72°
2026-04-25 23:39 52.53895 -22.81773 35110 ft 537 kts 72°
2026-04-25 23:40 52.55978 -22.69985 35115 ft 536 kts 73°
2026-04-25 23:40 52.58041 -22.58235 35126 ft 536 kts 73°
2026-04-25 23:41 52.60098 -22.46442 35128 ft 536 kts 73°
2026-04-25 23:41 52.62143 -22.34637 35130 ft 535 kts 73°
2026-04-25 23:42 52.64175 -22.22830 35117 ft 535 kts 73°
2026-04-25 23:42 52.66190 -22.11041 35113 ft 535 kts 73°
2026-04-25 23:43 52.68182 -21.99312 35123 ft 534 kts 73°
2026-04-25 23:43 52.70092 -21.87990 35135 ft 534 kts 73°
2026-04-25 23:44 52.71827 -21.77637 35115 ft 534 kts 73°
2026-04-25 23:44 52.73715 -21.66299 35117 ft 534 kts 74°
2026-04-25 23:45 52.75662 -21.54540 35134 ft 534 kts 74°
2026-04-25 23:45 52.77559 -21.42993 35120 ft 534 kts 74°
2026-04-25 23:46 52.79292 -21.32381 35120 ft 534 kts 74°
2026-04-25 23:46 52.80960 -21.22095 35122 ft 533 kts 74°
2026-04-25 23:47 52.82845 -21.10405 35118 ft 533 kts 74°
2026-04-25 23:47 52.84747 -20.98530 35124 ft 533 kts 75°
2026-04-25 23:48 52.86316 -20.88660 35124 ft 533 kts 75°
2026-04-25 23:48 52.88194 -20.76773 35129 ft 533 kts 75°
2026-04-25 23:49 52.90051 -20.64937 35129 ft 533 kts 75°
2026-04-25 23:49 52.91905 -20.53032 35125 ft 533 kts 75°
2026-04-25 23:50 52.93717 -20.41314 35123 ft 533 kts 75°
2026-04-25 23:50 52.94991 -20.33014 35122 ft 532 kts 75°
2026-04-25 23:51 52.96742 -20.21549 35124 ft 532 kts 75°
2026-04-25 23:51 52.98552 -20.09627 35128 ft 532 kts 75°
2026-04-25 23:52 53.00041 -19.97611 35130 ft 532 kts 83°
2026-04-25 23:52 53.00410 -19.85434 35140 ft 531 kts 89°
2026-04-25 23:53 53.00568 -19.73167 35126 ft 531 kts 89°
2026-04-25 23:53 53.00746 -19.60894 35131 ft 531 kts 89°
2026-04-25 23:54 53.00949 -19.48625 35142 ft 531 kts 89°
2026-04-25 23:54 53.01152 -19.36372 35135 ft 530 kts 89°
2026-04-25 23:55 53.01342 -19.24134 35129 ft 530 kts 89°
2026-04-25 23:55 53.01515 -19.11883 35137 ft 530 kts 89°
2026-04-25 23:56 53.01675 -18.99646 35139 ft 530 kts 89°
2026-04-25 23:56 53.01822 -18.87427 35144 ft 529 kts 90°
2026-04-25 23:57 53.01957 -18.75198 35141 ft 529 kts 90°
2026-04-25 23:57 53.02079 -18.63068 35144 ft 529 kts 90°
2026-04-25 23:58 53.02188 -18.50850 35139 ft 528 kts 90°
2026-04-25 23:58 53.02285 -18.38653 35145 ft 528 kts 90°
2026-04-25 23:59 53.02370 -18.26458 35143 ft 527 kts 90°
2026-04-25 23:59 53.02442 -18.14294 35144 ft 527 kts 91°
2026-04-26 00:00 53.02501 -18.02134 35147 ft 526 kts 91°
2026-04-26 00:00 53.02548 -17.90038 35149 ft 526 kts 91°
2026-04-26 00:01 53.02583 -17.77895 35155 ft 526 kts 91°
2026-04-26 00:01 53.02605 -17.65740 35155 ft 526 kts 91°
2026-04-26 00:02 53.02615 -17.53580 35152 ft 525 kts 91°
2026-04-26 00:02 53.02613 -17.41442 35155 ft 525 kts 91°
2026-04-26 00:03 53.02598 -17.29316 35163 ft 525 kts 91°
2026-04-26 00:03 53.02571 -17.17187 35158 ft 524 kts 91°
2026-04-26 00:04 53.02532 -17.05163 35163 ft 524 kts 92°
2026-04-26 00:04 53.02481 -16.93043 35160 ft 524 kts 92°
2026-04-26 00:05 53.02417 -16.80944 35167 ft 524 kts 92°
2026-04-26 00:05 53.02341 -16.68833 35167 ft 524 kts 92°
2026-04-26 00:06 53.02253 -16.56727 35169 ft 524 kts 93°
2026-04-26 00:06 53.02153 -16.44670 35170 ft 524 kts 93°
2026-04-26 00:07 53.02039 -16.32541 35174 ft 525 kts 93°
2026-04-26 00:07 53.01914 -16.20412 35175 ft 525 kts 94°
2026-04-26 00:08 53.01776 -16.08259 35179 ft 526 kts 94°
2026-04-26 00:08 53.01626 -15.96117 35182 ft 526 kts 94°
2026-04-26 00:09 53.01463 -15.83968 35182 ft 526 kts 94°
2026-04-26 00:09 53.01289 -15.71899 35187 ft 526 kts 94°
2026-04-26 00:10 53.01102 -15.59753 35189 ft 526 kts 94°
2026-04-26 00:10 53.00902 -15.47650 35189 ft 526 kts 95°
2026-04-26 00:11 53.00692 -15.35582 35194 ft 526 kts 95°
2026-04-26 00:11 53.00468 -15.23452 35193 ft 525 kts 95°
2026-04-26 00:12 53.00232 -15.11332 35194 ft 525 kts 95°
2026-04-26 00:12 52.99985 -14.99197 35194 ft 525 kts 95°
2026-04-26 00:13 52.99945 -14.87166 35197 ft 526 kts 92°
2026-04-26 00:13 53.00042 -14.75299 35201 ft 526 kts 92°
2026-04-26 00:14 53.00101 -14.63149 35202 ft 526 kts 92°
2026-04-26 00:14 53.00110 -14.51050 35200 ft 526 kts 93°
2026-04-26 00:15 53.00097 -14.36634 35206 ft 525 kts 93°
2026-04-26 00:15 53.00054 -14.14749 35210 ft 525 kts 93°
2026-04-26 00:15 52.98696 -13.91023 35185 ft 517 kts 108°
2026-04-26 00:16 52.94868 -13.67875 35219 ft 516 kts 109°
2026-04-26 00:16 52.87338 -13.21930 35218 ft 516 kts 109°
2026-04-26 00:17 52.76292 -12.56486 35221 ft 516 kts 110°
2026-04-26 00:17 52.60220 -11.65479 35234 ft 517 kts 110°
2026-04-26 00:18 52.43432 -10.75020 35242 ft 517 kts 111°
2026-04-26 00:18 52.25957 -9.85241 35250 ft 518 kts 111°
2026-04-26 00:19 52.07900 -8.96634 35240 ft 519 kts 112°
2026-04-26 00:19 51.93304 -8.27782 35201 ft 516 kts 112°
2026-04-26 00:19 51.89244 -8.09012 35150 ft 497 kts 112°
2026-04-26 00:20 51.84623 -7.87887 35151 ft 495 kts 112°
2026-04-26 00:20 51.80154 -7.67719 35332 ft 507 kts 112°
2026-04-26 00:20 51.76653 -7.51982 35229 ft 512 kts 112°
2026-04-26 00:21 51.62946 -6.91534 35148 ft 499 kts 113°
2026-04-26 00:21 51.50244 -6.14272 35312 ft 507 kts 107°
2026-04-26 00:22 51.35408 -5.26091 35206 ft 510 kts 107°
2026-04-26 00:22 51.29301 -4.78319 35247 ft 508 kts 97°
2026-04-26 00:23 51.21661 -3.88070 35216 ft 513 kts 98°
2026-04-26 00:23 51.16644 -3.33624 35198 ft 501 kts 98°
2026-04-26 00:24 51.08842 -2.54148 35334 ft 510 kts 99°
2026-04-26 00:24 50.99782 -1.70426 35209 ft 506 kts 100°
2026-04-26 00:24 50.96121 -1.35754 35217 ft 497 kts 89°
2026-04-26 00:25 50.99513 -1.05446 35372 ft 497 kts 75°
2026-04-26 00:25 51.01530 -0.91320 35265 ft 502 kts 75°
2026-04-26 00:26 51.03039 -0.80470 35256 ft 501 kts 76°
2026-04-26 00:26 51.04411 -0.69639 35262 ft 499 kts 82°
2026-04-26 00:26 51.04436 -0.64147 35257 ft 501 kts 96°
2026-04-26 00:27 51.03682 -0.58723 35276 ft 501 kts 108°
2026-04-26 00:27 51.02226 -0.53703 35255 ft 499 kts 121°
2026-04-26 00:27 51.00372 -0.49053 35281 ft 499 kts 123°
2026-04-26 00:28 50.89906 -0.22848 35276 ft 503 kts 122°
2026-04-26 00:28 50.63391 0.28496 35270 ft 503 kts 143°
2026-04-26 00:29 50.41397 0.56313 35262 ft 504 kts 142°
2026-04-26 00:29 50.35950 0.63153 35256 ft 500 kts 142°
2026-04-26 00:30 50.30517 0.69983 35236 ft 501 kts 142°
2026-04-26 00:30 50.25074 0.76819 35163 ft 503 kts 142°
2026-04-26 00:30 50.22338 0.80250 34690 ft 505 kts 142°
2026-04-26 00:31 50.19612 0.83659 34196 ft 499 kts 142°
2026-04-26 00:31 50.16939 0.86994 33673 ft 493 kts 142°
2026-04-26 00:31 50.14270 0.90309 33110 ft 487 kts 142°
2026-04-26 00:31 50.11627 0.93586 32578 ft 483 kts 142°
2026-04-26 00:32 50.09012 0.96824 32051 ft 478 kts 142°
2026-04-26 00:32 50.06249 0.99552 31511 ft 472 kts 157°
2026-04-26 00:32 49.99899 1.01140 31146 ft 469 kts 183°
2026-04-26 00:33 49.96586 1.01073 31150 ft 483 kts 182°
2026-04-26 00:33 49.93164 1.01084 30870 ft 501 kts 181°
2026-04-26 00:33 49.89686 1.00948 30203 ft 497 kts 190°
2026-04-26 00:33 49.86407 0.99515 29481 ft 487 kts 208°
2026-04-26 00:34 49.83691 0.96965 28865 ft 477 kts 221°
2026-04-26 00:34 49.81270 0.93293 28150 ft 466 kts 236°
2026-04-26 00:34 49.79420 0.89214 27525 ft 459 kts 238°
2026-04-26 00:34 49.77483 0.85312 26853 ft 459 kts 229°
2026-04-26 00:35 49.75045 0.82104 26234 ft 460 kts 219°
2026-04-26 00:35 49.72552 0.79300 25658 ft 457 kts 219°
2026-04-26 00:35 49.70028 0.76317 25044 ft 453 kts 221°
2026-04-26 00:35 49.68401 0.74306 24658 ft 451 kts 221°
2026-04-26 00:36 49.65975 0.71263 24071 ft 448 kts 220°
2026-04-26 00:36 49.63360 0.68676 23400 ft 447 kts 208°
2026-04-26 00:36 49.60509 0.66785 22751 ft 445 kts 204°
2026-04-26 00:36 49.57656 0.64990 22100 ft 442 kts 205°
2026-04-26 00:37 49.54890 0.63133 21460 ft 439 kts 206°
2026-04-26 00:37 49.52073 0.61157 20819 ft 434 kts 206°
2026-04-26 00:37 49.49298 0.59393 20171 ft 429 kts 198°
2026-04-26 00:37 49.46423 0.58441 19602 ft 426 kts 190°
2026-04-26 00:38 49.43509 0.57813 18995 ft 417 kts 185°
2026-04-26 00:38 49.40639 0.58253 18369 ft 418 kts 164°
2026-04-26 00:38 49.37999 0.60116 17721 ft 417 kts 146°
2026-04-26 00:38 49.35821 0.63004 17081 ft 414 kts 130°
2026-04-26 00:39 49.34239 0.66667 16454 ft 410 kts 115°
2026-04-26 00:39 49.33328 0.70779 15814 ft 405 kts 98°
2026-04-26 00:39 49.33130 0.74950 15232 ft 396 kts 91°
2026-04-26 00:39 49.33017 0.79168 14632 ft 393 kts 91°
2026-04-26 00:40 49.32903 0.83337 14038 ft 390 kts 92°
2026-04-26 00:40 49.32777 0.87496 13383 ft 388 kts 92°
2026-04-26 00:40 49.32642 0.91611 12731 ft 386 kts 92°
2026-04-26 00:40 49.32496 0.95720 12094 ft 383 kts 92°
2026-04-26 00:41 49.32347 0.99747 11492 ft 381 kts 92°
2026-04-26 00:41 49.32192 1.03798 10883 ft 379 kts 92°
2026-04-26 00:41 49.32035 1.07831 10289 ft 377 kts 93°
2026-04-26 00:41 49.31877 1.11829 9653 ft 374 kts 93°
2026-04-26 00:42 49.31721 1.15755 9376 ft 363 kts 93°
2026-04-26 00:42 49.31565 1.19615 9248 ft 363 kts 93°
2026-04-26 00:42 49.31409 1.23465 9241 ft 361 kts 93°
2026-04-26 00:42 49.31253 1.27301 9237 ft 361 kts 93°
2026-04-26 00:43 49.31095 1.31144 9245 ft 362 kts 93°
2026-04-26 00:43 49.30935 1.34998 9238 ft 362 kts 93°
2026-04-26 00:43 49.30779 1.38750 9239 ft 363 kts 93°
2026-04-26 00:43 49.30614 1.42657 9233 ft 363 kts 93°
2026-04-26 00:44 49.30450 1.46525 9241 ft 363 kts 93°
2026-04-26 00:44 49.30287 1.50376 9244 ft 363 kts 93°
2026-04-26 00:44 49.30119 1.54257 9238 ft 363 kts 93°
2026-04-26 00:44 49.29954 1.58064 9238 ft 362 kts 93°
2026-04-26 00:45 49.29785 1.61920 9238 ft 362 kts 93°
2026-04-26 00:45 49.29482 1.65703 9227 ft 357 kts 105°
2026-04-26 00:45 49.28398 1.69033 9240 ft 364 kts 128°
2026-04-26 00:45 49.26517 1.71624 9236 ft 365 kts 149°
2026-04-26 00:46 49.24176 1.73011 9225 ft 363 kts 169°
2026-04-26 00:46 49.21665 1.73163 9221 ft 360 kts 189°
2026-04-26 00:46 49.19235 1.72371 9237 ft 359 kts 194°
2026-04-26 00:46 49.16794 1.71462 9230 ft 363 kts 194°
2026-04-26 00:47 49.14327 1.70536 9219 ft 363 kts 194°
2026-04-26 00:47 49.11882 1.69631 9218 ft 362 kts 194°
2026-04-26 00:47 49.09847 1.68890 9218 ft 361 kts 194°
2026-04-26 00:47 49.07409 1.68016 9220 ft 360 kts 194°
2026-04-26 00:48 49.04962 1.67147 9219 ft 360 kts 193°
2026-04-26 00:48 49.02521 1.66286 9222 ft 360 kts 193°
2026-04-26 00:48 49.00082 1.65428 9219 ft 360 kts 193°
2026-04-26 00:48 48.97641 1.64572 9222 ft 360 kts 193°
2026-04-26 00:49 48.95194 1.63717 9228 ft 357 kts 192°
2026-04-26 00:49 48.92736 1.63481 9224 ft 360 kts 172°
2026-04-26 00:49 48.90360 1.64717 9234 ft 364 kts 149°
2026-04-26 00:49 48.88441 1.67207 9227 ft 364 kts 128°
2026-04-26 00:50 48.87236 1.70550 9222 ft 362 kts 109°
2026-04-26 00:50 48.86585 1.74230 9228 ft 361 kts 101°
2026-04-26 00:50 48.86221 1.77975 9190 ft 354 kts 95°
2026-04-26 00:50 48.86189 1.81638 9101 ft 339 kts 84°
2026-04-26 00:51 48.86582 1.84976 8864 ft 305 kts 73°
2026-04-26 00:51 48.87252 1.87895 8494 ft 282 kts 66°
2026-04-26 00:51 48.88041 1.90507 7956 ft 271 kts 63°
2026-04-26 00:51 48.88904 1.93022 7296 ft 265 kts 60°
2026-04-26 00:52 48.89794 1.95459 6681 ft 263 kts 59°
2026-04-26 00:52 48.90726 1.97934 6482 ft 271 kts 59°
2026-04-26 00:52 48.91673 2.00407 6283 ft 268 kts 59°
2026-04-26 00:52 48.92563 2.02715 6196 ft 241 kts 59°
2026-04-26 00:53 48.93366 2.04786 6153 ft 213 kts 58°
2026-04-26 00:53 48.94104 2.06687 6209 ft 210 kts 58°
2026-04-26 00:53 48.94831 2.08555 6189 ft 198 kts 58°
2026-04-26 00:53 48.95501 2.10281 6241 ft 182 kts 58°
2026-04-26 00:54 48.96146 2.11941 6218 ft 183 kts 58°
2026-04-26 00:54 48.96781 2.13618 6216 ft 182 kts 65°
2026-04-26 00:54 48.97011 2.15479 6234 ft 183 kts 86°
2026-04-26 00:54 48.97122 2.17433 6129 ft 186 kts 82°
2026-04-26 00:55 48.97270 2.19396 5788 ft 187 kts 83°
2026-04-26 00:55 48.97395 2.21355 5463 ft 185 kts 84°
2026-04-26 00:55 48.97505 2.23268 5271 ft 175 kts 84°
2026-04-26 00:55 48.97605 2.25107 5229 ft 178 kts 84°
2026-04-26 00:56 48.97708 2.26994 5016 ft 181 kts 84°
2026-04-26 00:56 48.97811 2.28922 4641 ft 182 kts 84°
2026-04-26 00:56 48.97914 2.30835 4317 ft 180 kts 84°
2026-04-26 00:56 48.98015 2.32733 4002 ft 179 kts 84°
2026-04-26 00:57 48.98115 2.34608 3679 ft 177 kts 84°
2026-04-26 00:57 48.98214 2.36454 3375 ft 176 kts 84°
2026-04-26 00:57 48.98313 2.38310 3064 ft 174 kts 84°
2026-04-26 00:57 48.98411 2.40143 2777 ft 172 kts 84°
2026-04-26 00:58 48.98507 2.41922 2448 ft 168 kts 85°
2026-04-26 00:58 48.98600 2.43662 2050 ft 163 kts 84°
2026-04-26 00:58 48.98687 2.45304 1823 ft 147 kts 84°
2026-04-26 00:58 48.98766 2.46777 1645 ft 136 kts 84°
2026-04-26 00:59 48.98843 2.48227 1464 ft 138 kts 83°
2026-04-26 00:59 48.98922 2.49675 1269 ft 136 kts 84°
2026-04-26 00:59 48.98999 2.51119 1080 ft 137 kts 83°
2026-04-26 00:59 48.99077 2.52559 905 ft 138 kts 84°
2026-04-26 01:00 48.99154 2.54015 726 ft 138 kts 83°
2026-04-26 01:00 48.99234 2.55459 550 ft 135 kts 83°
2026-04-26 01:00 48.99310 2.56904 390 ft 137 kts 84°
2026-04-26 01:00 48.99385 2.58270 365 ft 118 kts 85°
2026-04-26 01:01 48.99433 2.59192 359 ft 60 kts 85°
2026-04-26 01:01 48.99457 2.59623 362 ft 36 kts 85°
2026-04-26 01:01 48.99522 2.59925 365 ft 26 kts 37°
2026-04-26 01:01 48.99548 2.59948 366 ft 1 kts 26°
2026-04-26 01:02 48.99559 2.59956 365 ft 2 kts 26°
2026-04-26 01:02 48.99575 2.59967 360 ft 2 kts 20°
2026-04-26 01:02 48.99626 2.59980 365 ft 12 kts 356°
2026-04-26 01:02 48.99744 2.59967 364 ft 9 kts 354°
2026-04-26 01:03 48.99851 2.59961 365 ft 21 kts
2026-04-26 01:03 48.99957 2.60059 366 ft 16 kts 26°
2026-04-26 01:03 49.00005 2.60043 368 ft 7 kts 295°
2026-04-26 01:03 49.00011 2.59952 364 ft 10 kts 269°
2026-04-26 01:04 49.00002 2.59814 367 ft 18 kts 264°
2026-04-26 01:04 48.99991 2.59610 365 ft 20 kts 266°
2026-04-26 01:04 49.00063 2.59502 359 ft 17 kts 350°
2026-04-26 01:04 49.00156 2.59434 365 ft 13 kts 291°
2026-04-26 01:05 49.00215 2.59351 366 ft 8 kts 339°
2026-04-26 01:05 49.00270 2.59332 365 ft 9 kts 347°
2026-04-26 01:05 49.00308 2.59310 361 ft 5 kts 321°
2026-04-26 01:05 49.00313 2.59250 360 ft 7 kts 269°
2026-04-26 01:06 49.00312 2.59205 358 ft 0 kts 269°